Tracking 26258 objects as of 3-Oct-2022
HD Live streaming from Space Station
objects crossing your sky now

STARLINK-4546

Track STARLINK-4546 now!
10-day predictions
STARLINK-4546 is classified as:


NORAD ID: 53422
Int'l Code: 2022-097AL
Perigee: 434.4 km
Apogee: 436.5 km
Inclination: 53.2 °
Period: 93.1 minutes
Semi major axis: 6806 km
RCS: Unknown
Launch date: August 10, 2022
Source: United States (US)
Launch site: AIR FORCE EASTERN TEST RANGE (AFETR)
aabbcc
Your satellite tracking list
Your tracking list is empty




NASA's NSSDC Master Catalog

Two Line Element Set (TLE):
1 53422U 22097AL  22275.91667824 -.01058280  00000-0 -23496-1 0  9998
2 53422  53.2175 344.5092 0001575  44.8585 175.8091 15.46047674  1309
Source of the keplerian elements: AFSPC